{"data":{"norad_id":66334,"epoch":"2026-05-25T00:52:30.748800Z","epoch_age_seconds":65173,"freshness":"FRESH","line1":"1 66334U 25253R   26145.03646700  .00012731  00000+0  47111-3 0  9993","line2":"2 66334  42.9984 141.0924 0000711 269.9297  90.1473 15.27596511 31925","mean_motion":15.27596511,"eccentricity":7.11e-5,"inclination_deg":42.9984,"raan_deg":141.0924,"arg_perigee_deg":269.9297,"mean_anomaly_deg":90.1473,"bstar":0.00047111,"rev_number":3192,"period_min":94.265729833157,"perigee_km":482.51182979488,"apogee_km":483.48748342745,"semimajor_km":6861.1366566112,"source":"CELESTRAK","updated_at":"2026-05-25T13:38:21.169734Z"}}